Regional Weather Roundup
Issued by NWS

Home | Current Version | Previous Version | Graphics & Text | Print | Product List | Glossary Off
Versions: 1 2 3 4 5 6 7 8 9 10 11 12 13 14 15 16 17 18 19 20 21 22 23 24 25 26 27 28 29 30 31 32 33 34 35 36 37 38 39 40 41 42 43 44 45 46 47 48 49 50

000
ASUS45 KBOU 190207
RWRCO

WEATHER ROUNDUP FOR COLORADO
NATIONAL WEATHER SERVICE DENVER/BOULDER CO
800 PM MDT WED OCT 18 2017

NOTE: "FAIR" INDICATES FEW OR NO CLOUDS BELOW 12000 FEET WITH NO
SIGNIFICANT WEATHER AND/OR OBSTRUCTIONS TO VISIBILITY.

COZ001>005-013-030-031-190300-
...NORTHWEST COLORADO...

CITY           SKY/WX    TMP DP  RH WIND       PRES   REMARKS
CRAIG          FAIR      42  22  44 CALM      30.21R
HAYDEN         FAIR      51  13  21 S6        30.24R
MEEKER         FAIR      44  19  36 E5        30.21R
RABBIT EARS PA NOT AVBL
STEAMBOAT SPGS NOT AVBL
WALDEN         NOT AVBL
$$

COZ006>008-011-190300-
...WEST CENTRAL VALLEYS...

CITY           SKY/WX    TMP DP  RH WIND       PRES   REMARKS
GRAND JUNCTION FAIR      53  17  24 NE3       30.13R
MONTROSE       FAIR      49  25  39 SE7       30.20R
EAGLE          FAIR      49  17  28 SE7       30.25
RIFLE          FAIR      50  21  32 SE6       30.17R
DELTA          FAIR      57  15  19 NE7       30.15R
NUCLA          NOT AVBL
$$

COZ017>023-064>068-190300-
...SOUTHWEST COLORADO...

CITY           SKY/WX    TMP DP  RH WIND       PRES   REMARKS
DURANGO        FAIR      56  22  26 CALM      30.21R
CORTEZ         FAIR      50  27  40 NE8       30.18R
PAGOSA SPRINGS FAIR      48  16  27 NE5       30.29S
TELLURIDE      NOT AVBL
WOLF CREEK PAS NOT AVBL
$$

COZ009-010-012-014-032>034-037-058>063-190300-
...CENTRAL COLORADO...

CITY           SKY/WX    TMP DP  RH WIND       PRES   REMARKS
ASPEN          FAIR      47  15  27 SW10      30.30R
BUENA VISTA    FAIR      45  13  26 NW6       30.30R
COPPER MTN     NOT AVBL
BERTHOUD PASS  NOT AVBL
COTTONWOOD PAS NOT AVBL
GUNNISON       FAIR      46  16  30 N5        30.30R
KREMMLING      NOT AVBL
LEADVILLE      FAIR      33   7  33 NE9       30.41R WCI  25
SALIDA         NOT AVBL
SUNLIGHT       NOT AVBL
WILKERSON PASS NOT AVBL
$$

COZ069>075-190300-
...SAN LUIS VALLEY/SANGRE DE CRISTO MOUNTAINS...

CITY           SKY/WX    TMP DP  RH WIND       PRES   REMARKS
ALAMOSA        FAIR      43  13  29 S6        30.27S
DEL NORTE      NOT AVBL
LA VETA PASS   NOT AVBL
SAGUACHE       NOT AVBL
$$

COZ035-036-038>040-190300-
...NORTHERN COLORADO FRONT RANGE...

CITY           SKY/WX    TMP DP  RH WIND       PRES   REMARKS
DENVER INTL AP FAIR      50  22  33 SE12      30.14R
DMNS CITY PARK   N/A     59  22  24 SE9       30.14R
AURORA         PTCLDY    58  19  21 SE13      30.16R
FRONT RANGE AP PTCLDY    54  25  32 SE9       30.16R
ERIE MUNI ARPT NOT AVBL
BOULDER MUN AP NOT AVBL
CENTENNIAL     FAIR      59  16  18 S10       30.17R
BROOMFIELD     PTCLDY    63  14  15 W6        30.16R
FORT COLLINS   FAIR      62  25  24 E12       30.14R
LONGMONT       FAIR      56  26  31 W7        30.14S
$$

COZ041-046-047-076>085-087-088-190300-
...PIKES PEAK/PALMER DIVIDE AND SOUTHERN FOOTHILLS...

CITY           SKY/WX    TMP DP  RH WIND       PRES   REMARKS
COLO. SPRINGS  FAIR      62  17  17 E12       30.22R
A. F. ACADEMY  FAIR      54  15  21 CALM      30.23R
SCHRIEVER AFB  FAIR      55  17  22 MISG      30.22R
CHEYENNE MTN   NOT AVBL
ELLICOTT       FAIR     N/A N/A N/A SE10      30.20R
FALCON         FAIR      55  14  19 SE8       30.26S
FORT CARSON    FAIR      66  11  11 CALM      30.19R
LIMON          FAIR      51  21  30 S7        30.18R
MONUMENT HILL  NOT AVBL
CANON CITY     CLEAR     61  18  18 N10       30.15R
WALSENBURG     FAIR      48  21  34 W10       30.20S
TRINIDAD       FAIR      59  21  23 SW3       30.18R
$$

COZ042>045-048>051-090-091-190300-
...NORTHEAST COLORADO...

CITY           SKY/WX    TMP DP  RH WIND       PRES   REMARKS
GREELEY ARPT   FAIR      52  29  41 E5        30.12R
AKRON          FAIR      53  23  31 SE9       30.13R
BURLINGTON     FAIR      58  29  33 E10       30.13R
WRAY           FAIR      55  28  35 E7        30.12R
YUMA           NOT AVBL
STERLING       NOT AVBL
HOLYOKE        NOT AVBL
FORT MORGAN    FAIR      48  21  34 E10       30.12S
$$

COZ086-089-092>099-190300-
...SOUTHEAST COLORADO...

CITY           SKY/WX    TMP DP  RH WIND       PRES   REMARKS
PUEBLO         FAIR      60  29  30 E8        30.11R
LA JUNTA       FAIR      59  29  31 NE6       30.10R
LAMAR          FAIR      61  25  25 SE8       30.07R
SPRINGFIELD      N/A     53  35  50 E3        30.11R
$$



USA.gov is the U.S. government's official web portal to all federal, state and local government web resources and services.